GW5296 Weather Reports


time (UTC)temp
F
wind
direction
speed
knots
gust
knots
rain 1hr
in
rain 24hr
in
rain mn
in
humidity
%
barometer
mb
20260505000611 78 328 1.7 1.7 0.00 0.00 0.00 78 1010.0
20260505000112 78 319 1.7 1.7 0.00 0.00 0.00 79 1010.0
20260504235613 78 324 1.7 1.7 0.00 0.00 0.00 78 1010.0
20260504235111 79 354 2.6 2.6 0.00 0.00 0.00 77 1010.0
20260504234611 79 351 2.6 2.6 0.00 0.00 0.00 77 1010.0
20260504234111 79 339 0.9 1.7 0.00 0.00 0.00 77 1010.0
20260504233611 78 339 0.9 0.9 0.00 0.00 0.00 78 1010.0
20260504233112 78 324 0.0 0.0 0.00 0.00 0.00 78 1010.0
20260504232611 79 210 0.0 0.0 0.00 0.00 0.00 79 1010.0
20260504232113 79 215 0.0 0.0 0.00 0.00 0.00 78 1010.0
20260504231612 79 218 0.0 0.0 0.00 0.00 0.00 78 1010.0
20260504231111 79 234 0.9 0.9 0.00 0.00 0.00 78 1010.0
20260504230612 79 213 0.9 0.9 0.00 0.00 0.00 78 1010.0
20260504230112 79 213 0.0 0.9 0.00 0.00 0.00 77 1010.0
20260504225611 79 213 0.0 0.0 0.00 0.00 0.00 77 1010.0
20260504225112 79 217 0.0 0.0 0.00 0.00 0.00 78 1010.0
20260504224611 79 212 0.0 0.0 0.00 0.00 0.00 78 1010.0
20260504224111 79 216 0.0 0.0 0.00 0.00 0.00 78 1009.0
20260504223612 79 204 0.0 0.0 0.00 0.00 0.00 77 1009.0
20260504223112 79 201 0.0 0.0 0.00 0.00 0.00 77 1009.0
20260504222614 79 22 0.9 1.7 0.00 0.00 0.00 76 1009.0
20260504222113 79 158 0.0 0.0 0.00 0.00 0.00 75 1009.0
20260504221613 79 244 0.0 0.0 0.00 0.00 0.00 74 1009.0
20260504221112 79 224 0.0 0.0 0.00 0.00 0.00 74 1009.0
20260504220612 79 216 0.0 0.0 0.00 0.00 0.00 74 1009.0
20260504220111 79 232 0.9 0.9 0.00 0.00 0.00 75 1009.0
20260504215614 79 305 0.9 0.9 0.00 0.00 0.00 74 1009.0
20260504215112 79 192 0.0 0.0 0.00 0.00 0.00 75 1009.0
20260504214611 79 198 0.0 0.0 0.00 0.00 0.00 75 1009.0
20260504214111 79 185 0.0 0.0 0.00 0.00 0.00 75 1009.0
20260504213611 80 181 0.0 0.0 0.00 0.00 0.00 75 1009.0
20260504213113 79 195 0.0 0.0 0.00 0.00 0.00 74 1009.0
20260504212613 79 195 0.0 0.0 0.00 0.00 0.00 74 1009.0
20260504212115 80 212 0.0 0.0 0.00 0.00 0.00 75 1009.0
20260504211612 79 215 0.0 0.0 0.00 0.00 0.00 75 1009.0
20260504211113 79 195 0.0 0.0 0.00 0.00 0.00 76 1009.0
20260504210613 79 187 0.0 0.0 0.00 0.00 0.00 76 1009.0
20260504210113 79 226 0.0 0.0 0.00 0.00 0.00 74 1009.0
20260504205613 79 237 0.9 0.9 0.00 0.00 0.00 75 1009.0
20260504205111 79 217 0.0 0.0 0.00 0.00 0.00 76 1009.0
20260504204613 79 218 0.0 0.0 0.00 0.00 0.00 76 1009.0
20260504204113 79 231 0.0 0.0 0.00 0.00 0.00 76 1009.0
20260504203613 79 209 0.0 0.0 0.00 0.00 0.00 76 1009.0
20260504203114 80 208 0.0 0.0 0.00 0.00 0.00 76 1009.0
20260504202612 80 247 1.7 1.7 0.00 0.00 0.00 75 1009.0
20260504202116 80 211 0.9 1.7 0.00 0.00 0.00 75 1009.0
20260504201611 80 229 0.0 0.0 0.00 0.00 0.00 74 1010.0
20260504201112 80 203 0.9 0.9 0.00 0.00 0.00 74 1009.0
20260504200614 80 225 0.0 0.0 0.00 0.00 0.00 72 1009.0
20260504200114 80 227 0.0 0.9 0.00 0.00 0.00 72 1009.0
20260504195612 80 246 0.9 0.9 0.00 0.00 0.00 72 1009.0
20260504195115 80 247 0.9 0.9 0.00 0.00 0.00 71 1009.0
20260504194613 80 336 1.7 1.7 0.00 0.00 0.00 71 1009.0
20260504194113 80 261 0.0 0.0 0.00 0.00 0.00 71 1009.0
20260504193614 80 217 0.0 0.0 0.00 0.00 0.00 72 1009.0
20260504193113 80 209 0.0 0.0 0.00 0.00 0.00 72 1009.0
20260504192612 80 208 0.0 0.0 0.00 0.00 0.00 72 1009.0
20260504192111 80 192 0.0 0.0 0.00 0.00 0.00 71 1010.0
20260504191614 80 175 0.9 0.9 0.00 0.00 0.00 71 1010.0
20260504191112 81 161 0.9 0.9 0.00 0.00 0.00 71 1010.0
20260504190612 81 160 0.0 0.0 0.00 0.00 0.00 71 1010.0
20260504190113 81 185 0.0 0.0 0.00 0.00 0.00 70 1010.0
20260504185613 81 201 0.0 0.0 0.00 0.00 0.00 69 1010.0
20260504185114 81 203 0.0 0.0 0.00 0.00 0.00 69 1010.0
20260504184612 81 196 0.9 0.9 0.00 0.00 0.00 69 1010.0
20260504184113 81 216 0.9 0.9 0.00 0.00 0.00 69 1010.0
20260504183612 81 210 0.0 0.0 0.00 0.00 0.00 70 1010.0
20260504183113 81 205 0.9 0.9 0.00 0.00 0.00 69 1010.0
20260504182613 81 180 1.7 1.7 0.00 0.00 0.00 69 1010.0
20260504182115 81 180 1.7 1.7 0.00 0.00 0.00 69 1010.0
20260504181614 81 192 0.9 1.7 0.00 0.00 0.00 70 1010.0
20260504181114 81 189 0.9 0.9 0.00 0.00 0.00 70 1010.0
20260504180613 81 166 0.0 0.0 0.00 0.00 0.00 70 1010.0
20260504180112 82 192 0.0 0.0 0.00 0.00 0.00 69 1010.0
20260504175613 82 192 0.0 0.0 0.00 0.00 0.00 69 1010.0
20260504175115 82 159 0.0 0.9 0.00 0.00 0.00 69 1010.0
20260504174614 82 190 0.0 0.9 0.00 0.00 0.00 69 1010.0
20260504174113 82 179 0.9 1.7 0.00 0.00 0.00 69 1010.0
20260504173614 82 174 0.0 0.0 0.00 0.00 0.00 69 1010.0
20260504173114 82 179 1.7 1.7 0.00 0.00 0.00 69 1010.0
20260504172613 82 182 1.7 1.7 0.00 0.00 0.00 69 1010.0
20260504172114 82 158 2.6 2.6 0.00 0.00 0.00 69 1011.0
20260504171614 82 188 0.0 0.0 0.00 0.00 0.00 69 1010.0
20260504171113 82 187 0.0 0.0 0.00 0.00 0.00 69 1010.0
20260504170613 82 207 1.7 1.7 0.00 0.00 0.00 68 1010.0
20260504170113 82 186 0.9 0.9 0.00 0.00 0.00 68 1010.0
20260504160113 82 176 1.7 1.7 0.00 0.00 0.00 69 1010.0
20260504151113 83 133 2.6 3.5 0.00 0.00 0.00 67 1010.0
20260504150614 82 111 0.9 1.7 0.00 0.00 0.00 68 1010.0
20260504150113 83 174 0.9 1.7 0.00 0.00 0.00 68 1010.0
20260504141116 85 195 0.9 0.9 0.00 0.00 0.00 65 1008.0
20260504140616 84 179 1.7 1.7 0.00 0.00 0.00 65 1008.0
20260504140116 85 131 1.7 1.7 0.00 0.00 0.00 65 1007.0
20260504130615 86 186 2.6 2.6 0.00 0.00 0.00 62 1007.0
20260504130114 86 280 1.7 3.5 0.00 0.00 0.00 62 1007.0
20260504120113 86 29 2.6 3.5 0.00 0.00 0.00 62 1007.0
20260504110615 87 345 2.6 2.6 0.00 0.00 0.00 60 1006.0
20260504110113 87 52 4.3 5.2 0.00 0.00 0.00 60 1006.0
20260504100615 86 289 5.2 6.1 0.00 0.00 0.00 56 1006.0
20260504100113 85 281 4.3 6.1 0.00 0.00 0.00 57 1006.0
20260504090116 85 281 10.4 13.0 0.00 0.00 0.00 57 1007.0
20260504081613 98 17 4.3 6.1 0.00 0.00 0.00 52 1006.0
20260504081113 97 177 3.5 6.1 0.00 0.00 0.00 52 1007.0
20260504080612 97 160 6.1 7.8 0.00 0.00 0.00 53 1007.0
20260504080112 98 189 1.7 2.6 0.00 0.00 0.00 54 1007.0
20260504070113 96 171 4.3 6.1 0.00 0.00 0.00 56 1009.0
20260504060112 94 180 0.0 0.0 0.00 0.00 0.00 57 1010.0
20260504050612 92 225 4.3 6.1 0.00 0.00 0.00 61 1010.0
20260504050113 91 208 0.9 0.9 0.00 0.00 0.00 61 1010.0
20260504045613 91 232 1.7 1.7 0.00 0.00 0.00 63 1010.0
20260504045111 91 116 1.7 1.7 0.00 0.00 0.00 63 1010.0
20260504044611 91 216 3.5 3.5 0.00 0.00 0.00 61 1010.0
20260504044111 91 232 5.2 7.0 0.00 0.00 0.00 62 1010.0
20260504043611 90 241 3.5 5.2 0.00 0.00 0.00 62 1010.0
20260504043112 89 150 3.5 3.5 0.00 0.00 0.00 64 1010.0
20260504042613 89 159 3.5 5.2 0.00 0.00 0.00 64 1010.0
20260504042114 88 176 2.6 2.6 0.00 0.00 0.00 64 1010.0
20260504041615 89 148 5.2 7.0 0.00 0.00 0.00 65 1011.0
20260504041111 89 140 4.3 6.1 0.00 0.00 0.00 64 1010.0
20260504040612 89 204 4.3 5.2 0.00 0.00 0.00 63 1010.0
20260504040111 89 136 2.6 2.6 0.00 0.00 0.00 64 1010.0
20260504035612 89 216 2.6 3.5 0.00 0.00 0.00 64 1010.0
20260504035111 88 181 0.9 0.9 0.00 0.00 0.00 65 1011.0
20260504034611 87 137 2.6 2.6 0.00 0.00 0.00 66 1011.0
20260504034111 88 161 5.2 6.1 0.00 0.00 0.00 65 1011.0
20260504033611 88 223 0.9 0.9 0.00 0.00 0.00 64 1011.0
20260504033113 87 173 3.5 5.2 0.00 0.00 0.00 65 1011.0
20260504032611 86 168 1.7 1.7 0.00 0.00 0.00 67 1011.0
20260504032111 86 178 3.5 6.1 0.00 0.00 0.00 67 1011.0
20260504031611 87 188 0.0 0.9 0.00 0.00 0.00 66 1011.0
20260504031114 86 103 1.7 1.7 0.00 0.00 0.00 65 1011.0
20260504030611 85 154 1.7 2.6 0.00 0.00 0.00 65 1010.0
20260504030111 86 187 2.6 3.5 0.00 0.00 0.00 65 1010.0
20260504025611 85 158 2.6 2.6 0.00 0.00 0.00 65 1010.0
20260504025111 84 171 1.7 1.7 0.00 0.00 0.00 67 1010.0
20260504024611 85 171 3.5 3.5 0.00 0.00 0.00 67 1010.0
20260504024111 84 128 1.7 2.6 0.00 0.00 0.00 68 1010.0
20260504023611 84 153 0.9 1.7 0.00 0.00 0.00 68 1010.0
20260504023112 83 176 2.6 2.6 0.00 0.00 0.00 69 1010.0
20260504022611 82 181 0.0 0.9 0.00 0.00 0.00 70 1010.0
20260504022111 82 134 0.9 0.9 0.00 0.00 0.00 71 1010.0
20260504021611 82 145 0.9 0.9 0.00 0.00 0.00 72 1010.0
20260504021112 82 105 5.2 6.1 0.00 0.00 0.00 72 1010.0
20260504020612 81 127 1.7 1.7 0.00 0.00 0.00 72 1010.0
20260504020112 82 116 2.6 2.6 0.00 0.00 0.00 72 1010.0
20260504015612 81 176 0.9 0.9 0.00 0.00 0.00 73 1010.0
20260504015112 80 144 4.3 5.2 0.00 0.00 0.00 74 1010.0
20260504014611 80 117 2.6 3.5 0.00 0.00 0.00 75 1010.0
20260504014112 80 116 1.7 2.6 0.00 0.00 0.00 75 1009.0
20260504013612 80 131 1.7 1.7 0.00 0.00 0.00 76 1009.0
20260504013111 79 126 1.7 2.6 0.00 0.00 0.00 76 1009.0
20260504012611 79 74 0.9 1.7 0.00 0.00 0.00 76 1009.0
20260504012111 79 117 1.7 2.6 0.00 0.00 0.00 77 1009.0
20260504011611 78 74 0.9 0.9 0.00 0.00 0.00 77 1009.0
20260504011112 78 75 1.7 2.6 0.00 0.00 0.00 77 1009.0
20260504010612 78 87 0.9 1.7 0.00 0.00 0.00 78 1009.0
20260504010112 78 149 0.0 0.9 0.00 0.00 0.00 78 1009.0
20260504005611 78 146 0.0 0.0 0.00 0.00 0.00 79 1009.0
20260504005112 77 73 0.9 0.9 0.00 0.00 0.00 79 1009.0
20260504004612 77 57 5.2 5.2 0.00 0.00 0.00 79 1009.0
20260504004111 77 41 0.9 1.7 0.00 0.00 0.00 80 1009.0
20260504003612 77 74 0.9 0.9 0.00 0.00 0.00 80 1009.0
20260504003111 77 81 0.9 0.9 0.00 0.00 0.00 81 1009.0
20260504002611 77 16 2.6 2.6 0.00 0.00 0.00 80 1009.0
20260504002113 77 88 0.0 0.9 0.00 0.00 0.00 80 1008.0
20260504001611 77 13 0.9 0.9 0.00 0.00 0.00 79 1008.0
20260504001112 77 248 0.0 0.0 0.00 0.00 0.00 79 1008.0